| time (UTC) | temp C | wind direction | speed KPH | gust KPH | rain 1hr cm | rain 24hr cm | rain mn cm | humidity % | barometer mb |
| 20260508040046 | 9 | 103 | 1.6 | 6.4 | 0.00 | 0.00 | 0.00 | 67 | 1001.3 |
| 20260508034546 | 9 | 123 | 0.0 | 3.2 | 0.00 | 0.00 | 0.00 | 69 | 1001.3 |
| 20260508033045 | 8 | 115 | 0.0 | 3.2 | 0.00 | 0.00 | 0.00 | 71 | 1001.3 |
| 20260508031551 | 9 | 122 | 0.0 | 3.2 | 0.00 | 0.00 | 0.00 | 71 | 1001.3 |
| 20260508030052 | 9 | 122 | 0.0 | 3.2 | 0.00 | 0.00 | 0.00 | 71 | 1001.3 |
| 20260508024551 | 9 | 126 | 0.0 | 1.6 | 0.00 | 0.00 | 0.00 | 71 | 1001.3 |
| 20260508023045 | 9 | 124 | 0.0 | 3.2 | 0.00 | 0.00 | 0.00 | 71 | 1001.3 |
| 20260508021543 | 10 | 236 | 0.0 | 3.2 | 0.00 | 0.00 | 0.00 | 71 | 1001.3 |
| 20260508020041 | 10 | 207 | 0.0 | 4.8 | 0.00 | 0.00 | 0.00 | 70 | 1001.3 |
| 20260508014541 | 10 | 191 | 0.0 | 4.8 | 0.00 | 0.00 | 0.00 | 70 | 1001.3 |
| 20260508013140 | 11 | 173 | 0.0 | 3.2 | 0.00 | 0.00 | 0.00 | 69 | 1001.3 |
| 20260508011540 | 11 | 277 | 1.6 | 4.8 | 0.00 | 0.00 | 0.00 | 71 | 1001.3 |
| 20260508010042 | 11 | 292 | 0.0 | 4.8 | 0.00 | 0.00 | 0.00 | 71 | 1001.3 |
| 20260508004539 | 11 | 294 | 1.6 | 6.4 | 0.00 | 0.00 | 0.00 | 71 | 1001.3 |
| 20260508003039 | 11 | 276 | 1.6 | 8.0 | 0.00 | 0.00 | 0.00 | 72 | 1001.3 |
| 20260508001537 | 11 | 291 | 3.2 | 9.7 | 0.00 | 0.00 | 0.00 | 71 | 1001.3 |
| 20260508000036 | 12 | 292 | 4.8 | 11.3 | 0.00 | 0.00 | 0.00 | 70 | 1001.3 |
| 20260507234541 | 12 | 290 | 6.4 | 11.3 | 0.00 | 0.00 | 0.00 | 64 | 1001.3 |
| 20260507233035 | 12 | 288 | 3.2 | 8.0 | 0.00 | 0.00 | 0.00 | 68 | 1001.3 |
| 20260507231534 | 12 | 295 | 4.8 | 11.3 | 0.00 | 0.00 | 0.00 | 66 | 1001.3 |
| 20260507230033 | 12 | 224 | 3.2 | 9.7 | 0.00 | 0.00 | 0.00 | 65 | 1001.3 |
| 20260507224534 | 12 | 290 | 4.8 | 14.5 | 0.00 | 0.00 | 0.00 | 67 | 1001.3 |
| 20260507223031 | 12 | 290 | 6.4 | 12.9 | 0.00 | 0.00 | 0.00 | 68 | 1001.3 |
| 20260507221533 | 12 | 285 | 8.0 | 12.9 | 0.00 | 0.00 | 0.00 | 69 | 1001.3 |
| 20260507220030 | 12 | 291 | 4.8 | 11.3 | 0.00 | 0.00 | 0.00 | 65 | 1001.3 |
| 20260507214530 | 12 | 293 | 6.4 | 12.9 | 0.00 | 0.00 | 0.00 | 66 | 1001.3 |
| 20260507213029 | 12 | 304 | 6.4 | 12.9 | 0.00 | 0.00 | 0.00 | 68 | 1001.3 |
| 20260507211523 | 12 | 282 | 4.8 | 9.7 | 0.00 | 0.00 | 0.00 | 69 | 1001.3 |
| 20260507210021 | 11 | 299 | 4.8 | 11.3 | 0.00 | 0.00 | 0.00 | 66 | 1001.3 |
| 20260507204517 | 11 | 290 | 6.4 | 12.9 | 0.00 | 0.00 | 0.00 | 69 | 1001.3 |
| 20260507203018 | 11 | 290 | 9.7 | 14.5 | 0.00 | 0.00 | 0.00 | 68 | 1001.3 |
| 20260507201516 | 11 | 287 | 8.0 | 14.5 | 0.00 | 0.00 | 0.00 | 65 | 1001.3 |
| 20260507200015 | 11 | 292 | 8.0 | 12.9 | 0.00 | 0.00 | 0.00 | 66 | 1001.3 |
| 20260507194515 | 11 | 293 | 6.4 | 9.7 | 0.00 | 0.00 | 0.00 | 63 | 1001.3 |
| 20260507193017 | 11 | 282 | 4.8 | 8.0 | 0.00 | 0.00 | 0.00 | 63 | 1001.3 |
| 20260507191509 | 11 | 297 | 3.2 | 6.4 | 0.00 | 0.00 | 0.00 | 66 | 1001.3 |
| 20260507190007 | 10 | 294 | 4.8 | 8.0 | 0.00 | 0.00 | 0.00 | 67 | 1001.3 |
| 20260507184507 | 11 | 299 | 4.8 | 9.7 | 0.00 | 0.00 | 0.00 | 70 | 1001.3 |
| 20260507183008 | 10 | 292 | 6.4 | 9.7 | 0.00 | 0.00 | 0.00 | 70 | 1001.3 |
| 20260507181503 | 10 | 293 | 4.8 | 9.7 | 0.00 | 0.00 | 0.00 | 71 | 1001.3 |
| 20260507180003 | 10 | 295 | 4.8 | 8.0 | 0.00 | 0.00 | 0.00 | 70 | 1001.3 |
| 20260507174501 | 10 | 290 | 4.8 | 6.4 | 0.00 | 0.00 | 0.00 | 68 | 1001.3 |
| 20260507173002 | 10 | 300 | 4.8 | 9.7 | 0.00 | 0.00 | 0.00 | 68 | 1001.3 |
| 20260507171604 | 10 | 292 | 4.8 | 8.0 | 0.00 | 0.00 | 0.00 | 69 | 1001.3 |
| 20260507164631 | 10 | 294 | 3.2 | 6.4 | 0.00 | 0.00 | 0.00 | 74 | 1001.3 |
| 20260507163057 | 10 | 302 | 4.8 | 8.0 | 0.00 | 0.00 | 0.00 | 73 | 1001.3 |
| 20260507161601 | 10 | 302 | 3.2 | 4.8 | 0.00 | 0.00 | 0.00 | 74 | 1001.3 |
| 20260507160056 | 10 | 293 | 3.2 | 6.4 | 0.00 | 0.00 | 0.00 | 77 | 1001.3 |
| 20260507154555 | 10 | 290 | 3.2 | 4.8 | 0.00 | 0.00 | 0.00 | 75 | 1001.3 |
| 20260507153052 | 10 | 284 | 1.6 | 4.8 | 0.00 | 0.00 | 0.00 | 70 | 1001.3 |
| 20260507151551 | 10 | 284 | 1.6 | 4.8 | 0.00 | 0.00 | 0.00 | 74 | 1001.3 |
| 20260507150051 | 10 | 290 | 3.2 | 6.4 | 0.00 | 0.00 | 0.00 | 77 | 1001.3 |
| 20260507144549 | 10 | 291 | 1.6 | 4.8 | 0.00 | 0.00 | 0.00 | 82 | 1001.3 |
| 20260507143104 | 10 | 297 | 1.6 | 4.8 | 0.00 | 0.00 | 0.00 | 81 | 1001.3 |
| 20260507141605 | 10 | 233 | 1.6 | 4.8 | 0.00 | 0.00 | 0.00 | 80 | 1001.3 |
| 20260507140047 | 10 | 245 | 0.0 | 4.8 | 0.00 | 0.00 | 0.00 | 81 | 1001.3 |
| 20260507134547 | 10 | 278 | 1.6 | 8.0 | 0.00 | 0.00 | 0.00 | 81 | 1001.3 |
| 20260507133045 | 10 | 267 | 1.6 | 9.7 | 0.00 | 0.00 | 0.00 | 80 | 1001.3 |
| 20260507131554 | 10 | 268 | 1.6 | 4.8 | 0.00 | 0.00 | 0.00 | 81 | 1001.3 |
| 20260507130046 | 10 | 279 | 1.6 | 6.4 | 0.00 | 0.00 | 0.00 | 80 | 1001.3 |
| 20260507124543 | 10 | 266 | 0.0 | 6.4 | 0.00 | 0.00 | 0.00 | 78 | 1001.3 |
| 20260507123048 | 9 | 243 | 0.0 | 4.8 | 0.00 | 0.00 | 0.00 | 76 | 1001.3 |
| 20260507121543 | 9 | 153 | 0.0 | 3.2 | 0.00 | 0.00 | 0.00 | 77 | 1001.3 |
| 20260507120035 | 8 | 224 | 0.0 | 3.2 | 0.00 | 0.00 | 0.00 | 76 | 1001.3 |
| 20260507114532 | 7 | 122 | 0.0 | 3.2 | 0.00 | 0.00 | 0.00 | 79 | 1001.3 |
| 20260507113028 | 7 | 127 | 0.0 | 3.2 | 0.00 | 0.00 | 0.00 | 81 | 1001.3 |
| 20260507111529 | 6 | 110 | 0.0 | 3.2 | 0.00 | 0.00 | 0.00 | 82 | 1001.3 |
| 20260507110027 | 6 | 122 | 0.0 | 3.2 | 0.00 | 0.00 | 0.00 | 81 | 1001.3 |
| 20260507104527 | 6 | 122 | 0.0 | 1.6 | 0.00 | 0.00 | 0.00 | 82 | 1001.3 |
| 20260507103026 | 6 | 130 | 0.0 | 3.2 | 0.00 | 0.00 | 0.00 | 82 | 1001.3 |
| 20260507101526 | 6 | 130 | 0.0 | 3.2 | 0.00 | 0.00 | 0.00 | 81 | 1001.3 |
| 20260507100034 | 7 | 130 | 0.0 | 1.6 | 0.00 | 0.00 | 0.00 | 81 | 1001.3 |
| 20260507094525 | 7 | 168 | 0.0 | 3.2 | 0.00 | 0.05 | 0.00 | 80 | 1001.3 |
| 20260507093024 | 7 | 124 | 0.0 | 3.2 | 0.00 | 0.05 | 0.00 | 80 | 1001.3 |
| 20260507091524 | 7 | 134 | 0.0 | 6.4 | 0.00 | 0.05 | 0.00 | 80 | 1001.3 |
| 20260507090023 | 6 | 124 | 1.6 | 9.7 | 0.00 | 0.05 | 0.00 | 81 | 1001.3 |
| 20260507084522 | 6 | 141 | 1.6 | 6.4 | 0.00 | 0.20 | 0.00 | 81 | 1001.3 |
| 20260507083022 | 6 | 153 | 1.6 | 8.0 | 0.00 | 0.20 | 0.00 | 80 | 1001.3 |
| 20260507081522 | 6 | 118 | 1.6 | 8.0 | 0.00 | 0.20 | 0.00 | 80 | 1001.3 |
| 20260507080021 | 6 | 110 | 0.0 | 6.4 | 0.00 | 0.20 | 0.00 | 80 | 1001.3 |
| 20260507074521 | 6 | 96 | 1.6 | 6.4 | 0.00 | 0.28 | 0.00 | 80 | 1001.3 |
| 20260507073020 | 6 | 217 | 4.8 | 9.7 | 0.00 | 0.28 | 0.00 | 80 | 1001.3 |
| 20260507071528 | 6 | 193 | 0.0 | 6.4 | 0.00 | 0.28 | 0.00 | 79 | 1001.3 |
| 20260507070018 | 6 | 138 | 1.6 | 6.4 | 0.00 | 0.28 | 0.00 | 80 | 1001.3 |
| 20260507064531 | 6 | 118 | 0.0 | 4.8 | 0.00 | 0.33 | 0.00 | 80 | 1001.3 |
| 20260507063016 | 6 | 113 | 0.0 | 4.8 | 0.00 | 0.33 | 0.00 | 81 | 1001.3 |
| 20260507061515 | 6 | 124 | 1.6 | 4.8 | 0.00 | 0.33 | 0.00 | 81 | 1001.3 |
| 20260507060011 | 6 | 124 | 1.6 | 4.8 | 0.00 | 0.33 | 0.00 | 80 | 1001.3 |
| 20260507054509 | 6 | 123 | 0.0 | 1.6 | 0.00 | 0.41 | 0.00 | 79 | 1001.3 |
| 20260507053008 | 6 | 110 | 0.0 | 3.2 | 0.00 | 0.41 | 0.00 | 78 | 1001.3 |
| 20260507051505 | 6 | 119 | 0.0 | 4.8 | 0.00 | 0.41 | 0.00 | 77 | 1001.3 |
| 20260507050010 | 6 | 119 | 1.6 | 6.4 | 0.00 | 0.41 | 0.00 | 77 | 1001.3 |
| 20260507044501 | 7 | 122 | 0.0 | 4.8 | 0.00 | 0.43 | 0.00 | 77 | 1001.3 |
| 20260507043100 | 7 | 153 | 0.0 | 1.6 | 0.00 | 0.43 | 0.00 | 78 | 1001.3 |
| 20260507041559 | 7 | 142 | 0.0 | 3.2 | 0.00 | 0.43 | 0.00 | 77 | 1001.3 |